Location: Newark
(45.5000°N, 11.4167°E)
Time: 17:06:28
(UTC+00:00)

Transit 2A Rocket - Pass Details

Date: 25 August 2019
Orbit: 592 x 911 km, 66.7° (Epoch: 16 September)

Event Time Altitude Azimuth Distance (km) Brightness Sun altitude
Rises 19:12:48 0° 249° (WSW) 3,405 9.0 -11.7°
Reaches altitude 10° 19:15:45 10° 261° (W) 2,423 8.4 -12.2°
Maximum altitude 19:20:20 26° 317° (NW) 1,520 7.4 -12.9°
Drops below altitude 10° 19:24:38 10° 13° (NNE) 2,254 7.7 -13.5°
Sets 19:27:18 0° 27° (NNE) 3,121 8.2 -13.9°
